Location: Geroldsau
(48.7259°N, 8.2466°E)
Time: 14:53:36
(UTC+00:00)

X-37B - Pass Details

Date: 20 June 2021
Orbit: 383 x 392 km, 45.0° (Epoch: 01 July)

Event Time Altitude Azimuth Distance (km) Brightness Sun altitude
Exits shadow 02:01:00 - 261° (W) 1,546 3.2 -10.2°
Reaches altitude 10° 02:01:22 10° 259° (WSW) 1,406 3.0 -10.2°
Maximum altitude 02:04:13 31° 195° (SSW) 702 1.4 -9.9°
Drops below altitude 10° 02:07:04 10° 130° (SE) 1,406 3.4 -9.6°
Sets 02:09:16 0° 120° (ESE) 2,260 4.6 -9.4°
